Change the Weather History Date:

Saturday, December 14, 2013

  Actual Average (KFNT) Record (KFNT)
Temperature  
Mean Temperature 18 °F 28 °F  
Max Temperature 20 °F 34 °F 63 °F (1975)
Min Temperature 16 °F 21 °F 0 °F (1944)
Degree Days  
Heating Degree Days 47 37  
Month to date heating degree days 489  
Since 1 July heating degree days 1970  
Cooling Degree Days 0 0  
Month to date cooling degree days 0  
Year to date cooling degree days 531  
Moisture  
Dew Point 16 °F    
Average Humidity 89    
Maximum Humidity 96    
Minimum Humidity 80    
Precipitation  
Precipitation 0.00 in 0.06 in 1.31 in (1975)
Month to date precipitation 0.93  
Year to date precipitation 30.38  
Snow  
Snow 0.00 in 0.40 in 7.10 in (1951)
Month to date snowfall 4.8  
Since 1 July snowfall 7.7  
Snow Depth -    
Sea Level Pressure  
Sea Level Pressure 30.06 in    
Wind  
Wind Speed 9 mph (NE)    
Max Wind Speed 14 mph    
Max Gust Speed 20 mph    
Visibility 4 miles    
Events Snow    
T = Trace of Precipitation, MM = Missing Value Source: NWS Daily Summary

Daily Weather History Graph

Daily Weather History Graph

Search for Another Location

Airport or City:

Trip Planner

Search our weather history database for the weather conditions in past years. The results will help you decide how hot, cold, wet, or windy it might be!

Date:

Astronomy

Dec. 14, 2013 Rise Set
Actual Time 8:00 AM EST 5:02 PM EST
Civil Twilight 7:27 AM EST 5:34 PM EST
Nautical Twilight 6:52 AM EST 6:10 PM EST
Astronomical Twilight 6:17 AM EST 6:45 PM EST
Moon 3:26 PM EST (12/14) 5:17 AM EST (12/14)
Length of Visible Light 10h 06m
Length of Day
9h 02m
Waxing Gibbous, 93% of the Moon is Illuminated
Dec 14
Waxing Gibbous
Dec 17
Full
Dec 25
Last Quarter
Jan 1
New
Jan 7
First Quarter

Hourly Weather History & Observations

Time (EST) Temp. Windchill Dew Point Humidity Pressure Visibility Wind Dir Wind Speed Gust Speed Precip Events Conditions
12:15 AM 19.4 °F 10.4 °F 14.0 °F 80% 30.27 in 10.0 mi NE 6.9 mph - N/A   Overcast
12:35 AM 19.4 °F 9.5 °F 14.0 °F 80% 30.26 in 10.0 mi NE 8.1 mph 17.3 mph N/A   Overcast
12:55 AM 19.2 °F 9.3 °F 14.0 °F 80% 30.26 in 10.0 mi NE 8.1 mph - N/A   Overcast
1:14 AM 19.2 °F 8.4 °F 14.2 °F 81% 30.25 in 10.0 mi NE 9.2 mph - N/A   Overcast
1:35 AM 19.0 °F 9.0 °F 14.4 °F 82% 30.25 in 10.0 mi NE 8.1 mph - N/A   Overcast
1:55 AM 18.9 °F 8.0 °F 14.5 °F 83% 30.25 in 10.0 mi NE 9.2 mph - N/A   Overcast
2:14 AM 19.0 °F 10.0 °F 14.9 °F 84% 30.25 in 5.0 mi ENE 6.9 mph - N/A Snow Light Snow
2:35 AM 19.0 °F 11.1 °F 15.4 °F 86% 30.26 in 5.0 mi ENE 5.8 mph - N/A Snow Light Snow
2:55 AM 19.4 °F 10.4 °F 15.8 °F 86% 30.26 in 10.0 mi East 6.9 mph - N/A   Overcast
3:15 AM 19.4 °F 8.6 °F 14.7 °F 82% 30.26 in 3.0 mi East 9.2 mph - N/A Snow Light Snow
3:35 AM 19.2 °F 7.7 °F 14.5 °F 82% 30.26 in 4.0 mi East 10.4 mph 17.3 mph N/A Snow Light Snow
3:55 AM 18.9 °F 8.8 °F 14.7 °F 84% 30.25 in 2.5 mi ENE 8.1 mph - N/A Snow Light Snow
4:15 AM 18.9 °F 8.0 °F 14.9 °F 85% 30.24 in 5.0 mi ENE 9.2 mph - N/A Snow Light Snow
4:35 AM 18.9 °F 8.0 °F 14.7 °F 84% 30.23 in 5.0 mi ENE 9.2 mph - N/A Snow Light Snow
4:55 AM 18.7 °F 7.0 °F 14.7 °F 85% 30.22 in 5.0 mi ENE 10.4 mph - N/A Snow Light Snow
5:15 AM 18.5 °F 5.5 °F 14.0 °F 83% 30.22 in 5.0 mi ENE 12.7 mph 17.3 mph N/A Snow Light Snow
5:35 AM 18.5 °F 6.8 °F 14.0 °F 83% 30.21 in 7.0 mi ENE 10.4 mph - N/A Snow Light Snow
5:54 AM 18.5 °F 6.1 °F 14.0 °F 83% 30.21 in 7.0 mi ENE 11.5 mph - N/A Snow Light Snow
6:15 AM 18.3 °F 5.9 °F 14.0 °F 83% 30.20 in 2.5 mi ENE 11.5 mph 17.3 mph N/A Snow Light Snow
6:35 AM 18.1 °F 6.3 °F 13.6 °F 83% 30.21 in 2.5 mi ENE 10.4 mph 19.6 mph N/A Snow Light Snow
6:55 AM 18.0 °F 5.4 °F 13.8 °F 84% 30.21 in 2.5 mi ENE 11.5 mph 17.3 mph N/A Snow Light Snow
7:15 AM 18.0 °F 6.9 °F 13.8 °F 84% 30.21 in 2.5 mi East 9.2 mph 17.3 mph N/A Snow Light Snow
7:34 AM 17.6 °F 3.7 °F 13.6 °F 84% 30.20 in 4.0 mi ENE 13.8 mph 18.4 mph N/A Snow Light Snow
7:55 AM 17.8 °F 5.9 °F 13.8 °F 84% 30.19 in 3.0 mi ENE 10.4 mph - N/A Snow Light Snow
8:15 AM 18.0 °F 5.4 °F 13.6 °F 83% 30.19 in 3.0 mi East 11.5 mph 16.1 mph N/A Snow Light Snow
8:34 AM 18.0 °F 5.4 °F 13.6 °F 83% 30.18 in 1.2 mi East 11.5 mph 18.4 mph N/A Snow Light Snow
8:55 AM 17.6 °F 5.7 °F 14.0 °F 86% 30.18 in 0.8 mi ENE 10.4 mph 17.3 mph N/A Snow Light Snow
9:15 AM 17.6 °F 5.0 °F 14.7 °F 88% 30.17 in 0.8 mi ENE 11.5 mph 17.3 mph N/A Snow Light Snow
9:35 AM 17.6 °F 4.3 °F 14.4 °F 87% 30.17 in 1.2 mi East 12.7 mph 19.6 mph N/A Snow Light Snow
9:55 AM 18.1 °F 5.0 °F 14.2 °F 84% 30.16 in 1.2 mi ENE 12.7 mph 18.4 mph N/A Snow Light Snow
10:15 AM 18.3 °F 5.2 °F 14.7 °F 86% 30.14 in 1.2 mi ENE 12.7 mph 17.3 mph N/A Snow Light Snow
10:35 AM 18.3 °F 5.9 °F 14.5 °F 85% 30.14 in 1.0 mi ENE 11.5 mph 17.3 mph N/A Snow Light Snow
10:55 AM 18.5 °F 6.8 °F 14.9 °F 86% 30.12 in 1.0 mi ENE 10.4 mph - N/A Snow Light Snow
11:15 AM 18.5 °F 6.8 °F 15.3 °F 87% 30.11 in 1.2 mi ENE 10.4 mph - N/A Snow Light Snow
11:35 AM 18.9 °F 7.2 °F 15.6 °F 87% 30.10 in 1.0 mi ENE 10.4 mph - N/A Snow Light Snow
11:55 AM 19.4 °F 7.9 °F 15.8 °F 86% 30.09 in 1.2 mi ENE 10.4 mph - N/A Snow Light Snow
12:14 PM 19.6 °F 9.7 °F 15.8 °F 85% 30.08 in 1.2 mi ENE 8.1 mph - N/A Snow Light Snow
12:35 PM 20.1 °F 10.3 °F 16.2 °F 85% 30.06 in 1.5 mi ENE 8.1 mph - N/A Snow Light Snow
12:55 PM 20.1 °F 9.5 °F 16.5 °F 86% 30.04 in 1.5 mi NE 9.2 mph - N/A Snow Light Snow
1:14 PM 20.1 °F 8.1 °F 16.5 °F 86% 30.02 in 1.2 mi NE 11.5 mph 16.1 mph N/A Snow Light Snow
1:35 PM 19.9 °F 10.1 °F 16.9 °F 88% 30.00 in 1.2 mi NE 8.1 mph - N/A Snow Light Snow
1:55 PM 20.1 °F 9.5 °F 17.6 °F 90% 29.98 in 1.5 mi NE 9.2 mph - N/A Snow Light Snow
2:15 PM 20.3 °F 9.0 °F 17.6 °F 89% 29.97 in 1.0 mi NE 10.4 mph 16.1 mph N/A Snow Light Snow
2:35 PM 20.3 °F 9.0 °F 17.6 °F 89% 29.96 in 1.5 mi NE 10.4 mph 19.6 mph N/A Snow Light Snow
2:55 PM 20.5 °F 10.0 °F 17.8 °F 89% 29.94 in 1.5 mi NE 9.2 mph - N/A Snow Light Snow
3:15 PM 20.7 °F 11.0 °F 18.5 °F 91% 29.93 in 1.5 mi NE 8.1 mph - N/A Snow Light Snow
3:35 PM 20.8 °F 11.2 °F 18.7 °F 91% 29.93 in 1.5 mi NE 8.1 mph - N/A Snow Light Snow
3:54 PM 20.8 °F 10.4 °F 19.0 °F 93% 29.92 in 1.5 mi NE 9.2 mph - N/A Snow Light Snow
4:15 PM 20.8 °F 12.1 °F 19.2 °F 93% 29.92 in 1.5 mi NE 6.9 mph - N/A Snow Light Snow
4:35 PM 20.8 °F 12.1 °F 19.2 °F 93% 29.92 in 1.8 mi NE 6.9 mph - N/A Snow Light Snow
4:54 PM 20.8 °F 11.2 °F 19.2 °F 93% 29.91 in 1.8 mi NE 8.1 mph - N/A Snow Light Snow
5:15 PM 20.8 °F 11.2 °F 19.4 °F 94% 29.91 in 2.5 mi NNE 8.1 mph - N/A Snow Light Snow
5:35 PM 20.8 °F 11.2 °F 19.4 °F 94% 29.90 in 2.0 mi NNE 8.1 mph - N/A Snow Light Snow
5:55 PM 20.8 °F 11.2 °F 19.4 °F 94% 29.90 in 2.0 mi NNE 8.1 mph - N/A Snow Light Snow
6:15 PM 20.7 °F 11.9 °F 19.4 °F 95% 29.89 in 2.5 mi NNE 6.9 mph - N/A Snow Light Snow
6:35 PM 20.3 °F 10.6 °F 19.2 °F 96% 29.88 in 2.5 mi NNE 8.1 mph - N/A Snow Light Snow
6:55 PM 20.3 °F 10.6 °F 19.2 °F 96% 29.88 in 1.8 mi North 8.1 mph - N/A Snow Light Snow
7:15 PM 20.3 °F 11.5 °F 19.2 °F 96% 29.87 in 3.0 mi NNE 6.9 mph - N/A Snow Light Snow
7:35 PM 20.3 °F 10.6 °F 19.2 °F 96% 29.87 in 3.0 mi NNE 8.1 mph - N/A Snow Light Snow
7:55 PM 20.3 °F 11.5 °F 19.2 °F 96% 29.87 in 2.5 mi North 6.9 mph - N/A Snow Light Snow
8:15 PM 20.3 °F 11.5 °F 19.2 °F 96% 29.87 in 4.0 mi North 6.9 mph - N/A Snow Light Snow
8:34 PM 20.3 °F 11.5 °F 19.2 °F 96% 29.86 in 4.0 mi North 6.9 mph - N/A Snow Light Snow
8:55 PM 20.3 °F 11.5 °F 19.2 °F 96% 29.86 in 3.0 mi North 6.9 mph - N/A Snow Light Snow
9:15 PM 20.3 °F 11.5 °F 19.2 °F 96% 29.85 in 3.0 mi North 6.9 mph - N/A Snow Light Snow
9:34 PM 20.3 °F 12.5 °F 19.2 °F 96% 29.85 in 5.0 mi North 5.8 mph - N/A   Overcast
9:55 PM 20.3 °F 13.8 °F 19.2 °F 96% 29.84 in 5.0 mi North 4.6 mph - N/A   Overcast
10:14 PM 19.8 °F 13.2 °F 18.5 °F 95% 29.84 in 7.0 mi North 4.6 mph - N/A   Overcast
10:35 PM 19.2 °F 12.5 °F 18.3 °F 96% 29.84 in 7.0 mi North 4.6 mph - N/A   Scattered Clouds
10:55 PM 18.1 °F 11.3 °F 17.2 °F 96% 29.84 in 10.0 mi NNW 4.6 mph - N/A   Clear
11:14 PM 17.6 °F - 16.7 °F 96% 29.83 in 10.0 mi Calm Calm - N/A   Clear
11:35 PM 16.3 °F - 15.3 °F 96% 29.83 in 10.0 mi Calm Calm - N/A   Clear
11:55 PM 16.2 °F 10.6 °F 15.3 °F 96% 29.82 in 7.0 mi NW 3.5 mph - N/A   Mostly Cloudy